Back to catalog

FENGYUN 1C DEB

AliveSSO
NORAD 30765·DEBRIS·🇨🇳 China

Launched May 10, 1999 from Taiyuan Satellite Launch Center

Loading…

Next Passes (next 24 hours)

TLE

FreshSource: Space-Track

Epoch: Sep 14, 2026, 15:11 UTC

1 30765U 99025AUB 26257.63301279  .00000844  00000-0  44465-3 0  9991
2 30765  98.7617 304.0946 0068643 142.0037  12.0085 14.15418713  7010

Track FENGYUN 1C DEB in real time with AllMySat

Download on the App Store